Regional Weather Roundup
Issued by NWS

Home | Current Version | Previous Version | Graphics & Text | Print | Product List | Glossary On
Versions: 1 2 3 4 5 6 7 8 9 10 11 12 13 14 15 16 17 18 19 20 21 22 23 24 25 26 27 28 29 30 31 32 33 34 35 36 37 38 39 40 41 42 43 44 45 46 47 48 49 50
000
ASUS44 KMEG 282210
RWRTN
TENNESSEE HOURLY STATE WEATHER ROUNDUP
NATIONAL WEATHER SERVICE MEMPHIS TN
400 PM CST SUN DEC 28 2014

TNZ002-004-019-021-049-052-054-088>092-282300-
WEST TENNESSEE

CITY           SKY/WX    TMP DP  RH WIND       PRES   REMARKS
MEMPHIS INTL   CLOUDY    40  36  86 N8        30.16F WCI  34
NWS MEMPHIS      N/A     39 N/A N/A MISG        N/A
JACKSON        CLOUDY    39  37  92 N8        30.17R FOG     WCI  33
DYERSBURG      CLOUDY    37  25  60 N6        30.20S WCI  33
UNION CITY     CLOUDY    34  34 100 N8        30.18S WCI  27
PARIS          CLOUDY    34  32  93 N7        30.18S WCI  28
HUNTINGDON     CLOUDY    35  34  96 VRB6      30.18R WCI  30
LEXINGTON      CLOUDY    39  37  93 N6        30.15R WCI  35
SAVANNAH       CLOUDY    39  39 100 N3        30.15S
$$

TNZ008-025-027-028-033-062-065-066-282300-
NORTH MIDDLE TENNESSEE

CITY           SKY/WX    TMP DP  RH WIND       PRES   REMARKS
NASHVILLE      LGT RAIN  40  38  93 N6        30.16R
CLARKSVILLE    CLOUDY    37  34  89 N9        30.19R WCI  30
SMYRNA         LGT RAIN  40  39  96 N8        30.17R FOG     WCI  34
COOKEVILLE     CLOUDY    43  43 100 N3        30.12R
CROSSVILLE     CLOUDY    46  43  89 NW5       30.10R FOG
$$

TNZ061-075-076-078-094-096-097-282300-
SOUTH MIDDLE TENNESSEE

CITY           SKY/WX    TMP DP  RH WIND       PRES   REMARKS
FAYETTEVILLE   CLOUDY    41  39  93 N5        30.12R
TULLAHOMA      CLOUDY    41  39  93 N5        30.13S
WINCHESTER     CLOUDY    43  43 100 NW5       30.12F
MCMINNVILLE    CLOUDY    43  43 100 CALM      30.13R
COLUMBIA       CLOUDY   N/A N/A N/A N5        30.13S
SHELBYVILLE    CLOUDY    43  41  93 N5        30.14S
$$

TNZ017-018-042-046-047-282300-
NORTHEAST TENNESSEE

CITY           SKY/WX    TMP DP  RH WIND       PRES   REMARKS
TRI CITIES     DRIZZLE   48  47  96 CALM      30.07R FOG
ELIZABETHTON   CLOUDY    46  46 100 CALM      30.06R FOG
$$

TNZ012-013-036-069-073-074-282300-
CENTRAL EAST TENNESSEE

CITY           SKY/WX    TMP DP  RH WIND       PRES   REMARKS
KNOXVILLE      FOG       50  49  96 NE5       30.05S VSB 1
OAK RIDGE      CLOUDY    52  50  93 CALM      30.09R FOG
GATLINBURG     CLOUDY    48  48 100 CALM      30.06R
MORRISTOWN     MOCLDY    48  48 100 CALM      30.07R
$$

TNZ083-085-099-282300-
SOUTHEAST TENNESSEE

CITY           SKY/WX    TMP DP  RH WIND       PRES   REMARKS
CHATTANOOGA    CLOUDY    57  53  86 N8        30.07R
$$

SKY/WX REPORTED AS FAIR MEANS FEW OR NO CLOUDS BELOW
12 THOUSAND FEET.



USA.gov is the U.S. government's official web portal to all federal, state and local government web resources and services.